User: anonymous   Login
Location: Unspecified
(0.0000°N, 0.0000°E)
Time: 10:42:28
(UTC+00:00)
Language:

GALILEO 9 (205) - Orbit

View from above orbital plane
View from above orbital plane
View from above satellite
View from above satellite

Ground track
Ground track

The orbit data is extracted from the following two-line orbital elements,

1 40889U 15045A   22273.63751691  .00000035  00000-0  00000-0 0  9996
2 40889  55.5606 259.0565 0004212 351.0541   8.9235  1.70473047 43904
Epoch (UTC): 30 September 2022 15:18:01
Eccentricity: 0.0004212
inclination: 55.5606°
perigee height: 23209 km
apogee height: 23234 km
right ascension of ascending node: 259.0565°
argument of perigee: 351.0541°
revolutions per day: 1.70473047
mean anomaly at epoch: 8.9235°
orbit number at epoch: 4390

The dashed part of the orbit path shows where the satellite is in the earth's shadow,  

DLR